Regional Weather Roundup
Issued by NWS

Home | Current Version | Previous Version | Graphics & Text | Print | Product List | Glossary Off
Versions: 1 2 3 4 5 6 7 8 9 10 11 12 13 14 15 16 17 18 19 20 21 22 23 24 25 26 27 28 29 30 31 32 33 34 35 36 37 38 39 40 41 42 43 44 45 46 47 48 49 50

550
ASUS45 KBOU 222007
RWRCO

WEATHER ROUNDUP FOR COLORADO
NATIONAL WEATHER SERVICE DENVER/BOULDER CO
200 PM MDT THU JUN 22 2017

NOTE: "FAIR" INDICATES FEW OR NO CLOUDS BELOW 12000 FEET WITH NO
SIGNIFICANT WEATHER AND/OR OBSTRUCTIONS TO VISIBILITY.

COZ001>005-013-030-031-222100-
...NORTHWEST COLORADO...

CITY           SKY/WX    TMP DP  RH WIND       PRES   REMARKS
CRAIG          FAIR      89  34  14 N10G21    30.00F
HAYDEN         FAIR      84  39  20 NW16G23   30.03F
MEEKER         FAIR      91  34  13 NW12G36   29.99F
RABBIT EARS PA FAIR      64  41  42 W8G22     30.35F
STEAMBOAT SPGS FAIR      82  44  25 W17       30.05S
WALDEN         FAIR      72  39  30 SW12G18   30.15S
$$

COZ006>008-011-222100-
...WEST CENTRAL VALLEYS...

CITY           SKY/WX    TMP DP  RH WIND       PRES   REMARKS
GRAND JUNCTION FAIR      97  34  11 W13G23    29.86F
MONTROSE       FAIR      94  28   9 NW7       29.96F
EAGLE          SUNNY     88  32  13 W28       30.00F
RIFLE          FAIR      92  31  11 W18       29.92F
DELTA          FAIR     100  29   8 SE7       29.89F
NUCLA          FAIR      97  18   5 W10G26    30.01F
$$

COZ017>023-064>068-222100-
...SOUTHWEST COLORADO...

CITY           SKY/WX    TMP DP  RH WIND       PRES   REMARKS
DURANGO        FAIR      92  22   8 W20G26    30.06F
CORTEZ         FAIR      95  23   7 W13G28    30.01F
PAGOSA SPRINGS FAIR      88  23   9 W8G21     30.15F
TELLURIDE      PTSUNNY   78  23  13 W8G20     30.30F
WOLF CREEK PAS FAIR      63  32  31 SW12G23   30.56F
$$

COZ009-010-012-014-032>034-037-058>063-222100-
...CENTRAL COLORADO...

CITY           SKY/WX    TMP DP  RH WIND       PRES   REMARKS
ASPEN          FAIR      84  32  15 CALM      30.09F
BUENA VISTA    FAIR      86  25  11 SW17G23   30.11F
COPPER MTN     PTSUNNY   64  25  22 W16       30.48F
BERTHOUD PASS  FAIR      59  45  58 W31G45    30.49F THUNDER
COTTONWOOD PAS FAIR      77  14   9 W10G30    30.29F
GUNNISON       FAIR      85  29  13 W18G25    30.12F
KREMMLING      NOT AVBL
LEADVILLE      FAIR      72  23  16 W10G21    30.28F HAZE
MONARCH PASS   FAIR      64  25  22 W35G47    30.59F
SALIDA         FAIR      89  22   8 W13G29    30.15F
SUNLIGHT       FAIR      72  32  23 SW3       30.41F
WILKERSON PASS PTSUNNY   59  27  29 SW7       30.44F HAZE
$$

COZ069>075-222100-
...SAN LUIS VALLEY/SANGRE DE CRISTO MOUNTAINS...

CITY           SKY/WX    TMP DP  RH WIND       PRES   REMARKS
ALAMOSA        LGT RAIN  76  36  23 NW17G54   30.15R SQUALL
DEL NORTE      FAIR      80  34  18 W5        30.15S
LA VETA PASS   FAIR      81  32  17 MISG      30.45F
SAGUACHE       FAIR      84  36  17 S9G17     30.13F
$$

COZ035-036-038>040-222100-
...NORTHERN COLORADO FRONT RANGE...

CITY           SKY/WX    TMP DP  RH WIND       PRES   REMARKS
DENVER INTL AP PTSUNNY   87  47  24 NE18      29.93F
DMNS CITY PARK   N/A     81  45  28 NE15G28   29.91F
AURORA         PTSUNNY   86  40  19 N12G20    29.92F
FRONT RANGE AP FAIR      82  48  30 NE18      29.95F
ERIE MUNI ARPT FAIR      87  44  22 NE15G21   29.92F
BOULDER MUN AP FAIR      86  48  26 NE18G24   29.94S
CENTENNIAL     LGT RAIN  84  43  23 NE12G25   29.95R
BROOMFIELD     FAIR      82  46  28 NE16G24   29.96S
FORT COLLINS   FAIR      84  46  26 NE18G24   29.94S
LONGMONT       FAIR      82  47  28 N10G20    29.96S
$$

COZ041-046-047-076>085-087-088-222100-
...PIKES PEAK/PALMER DIVIDE AND SOUTHERN FOOTHILLS...

CITY           SKY/WX    TMP DP  RH WIND       PRES   REMARKS
COLO. SPRINGS  TSTM      80  39  23 SW21G52   30.02R
A. F. ACADEMY  MOSUNNY   81  27  13 SE12G28   29.98S
SCHRIEVER AFB  NOT AVBL
CHEYENNE MTN   NOT AVBL
ELLICOTT       FAIR     N/A N/A N/A NW16G28   29.98R THUNDER
FALCON           N/A     82  30  15 W12G66    30.09R
FORT CARSON    PTSUNNY   87  42  20 N22G28    29.93R
LIMON          FAIR      86  46  24 N17G28    29.93R
MONUMENT HILL  CLOUDY    68  45  42 NE14G28   30.06R
CANON CITY     SUNNY    100  34  10 W15G21    29.84F
WALSENBURG     FAIR      95  36  12 W16G22    29.94F
TRINIDAD       FAIR      97  30   9 N6        29.91F
$$

COZ042>045-048>051-090-091-222100-
...NORTHEAST COLORADO...

CITY           SKY/WX    TMP DP  RH WIND       PRES   REMARKS
GREELEY ARPT   FAIR      83  48  29 NE17      29.92F
AKRON          FAIR      84  49  29 N18G30    29.90S
BURLINGTON     FAIR      91  55  29 NE17G29   29.83S
WRAY           FAIR      88  50  27 N22G30    29.82F
YUMA           FAIR      82  52  34 N23       29.85F
STERLING       FAIR      82  54  36 NE18G28   29.86S
HOLYOKE        NOT AVBL
FORT MORGAN    FAIR      83  47  28 N16G26    29.91R
$$

COZ086-089-092>099-222100-
...SOUTHEAST COLORADO...

CITY           SKY/WX    TMP DP  RH WIND       PRES   REMARKS
PUEBLO         FAIR     100  40  12 S10       29.79F
LA JUNTA       FAIR     100  41  13 W6        29.77F
LAMAR          FAIR     105  38  10 W7        29.71F
SPRINGFIELD      N/A    100  39  12 NE13      29.79F
$$




USA.gov is the U.S. government's official web portal to all federal, state and local government web resources and services.